Location: Balaclava NSW 2575, Australia
(34.4510°S, 150.4953°E)
Time: 02:05:09
(UTC+10:00)

A-11 Canister half - Pass Details

Date: 14 June 2021
Orbit: 1513 x 1687 km, 47.2° (Epoch: 24 July)

Event Time Altitude Azimuth Distance (km) Brightness Sun altitude
Rises 18:14:21 0° 293° (WNW) 4,687 13.4 -16.0°
Reaches altitude 10° 18:17:24 10° 289° (WNW) 3,725 12.4 -16.6°
Maximum altitude 18:26:47 64° 209° (SSW) 1,737 9.3 -18.5°
Enters shadow 18:33:31 23° 133° (SE) 2,967 10.0 -19.8°
